一网星座-0134星 (ONEWEB-0134 )

导读

ONEWEB-0134是英国OneWeb公司于2020年12月18日发射的低轨通信卫星,隶属于OneWeb全球低轨卫星互联网星座项目。OneWeb星座计划构建覆盖全球的宽带通信网络,使用Ku波段提供用户通信服务,Ka波段完成关口站通信,通过全球关口站实现卫星联网。ONEWEB-0134入轨后,为OneWeb推进全球互联网覆盖,尤其是为高纬度地区提供宽带接入服务贡献力量,是全球卫星互联网建设进程中的重要组成节点。

基本信息
目录编号:
47280
目录名称:
ONEWEB-0134
国际标识:
2020-100Y
轨道中心:
EARTH
卫星名称:
一网星座-0134星
卫星全名:
一网星座-0134星 (ONEWEB-0134 )
卫星状态:
在轨 (已飞行2002 天)
发射日期:
2020-12-18 UTC
国别 :
英国 (GB)
星等 :
--
轨道信息
数据来源 国际轨道数据 AOE轨道数据
星历时间 2026-06-12T13:54:41+0800
14小时前
查看轨道信息
2026-06-09T06:00:00+0800
3天前
查看轨道信息
半长轴 7591.864km 7591.843km
偏心率 0.0001604 0.0002074
轨道倾角 87.895° 87.895°
近地点辐角 96.182° 90.450°
升交点赤经 351.628° 352.290°
平近点角 263.949° 26.761°
近地点 1212.509km 1212.131km
远地点 1214.945km 1215.281km
周期 109.719分钟 109.719分钟
每日圈数 13.124422 13.124477
详细信息
平衡模式:
三轴稳定
覆盖范围:
全球
运营商:
一网卫星公司
运营商所在国:
英国
制造商(研发单位):
一网卫星公司
制造商所在国:
英国
使用方式:
暂无
卫星简介
OneWeb卫星网络由648颗重约125公斤的微型卫星组成,运行在1200公里的轨道上。 每颗卫星都能够提供至少每秒8千兆位的吞吐量,以使用其高吞吐量的Ku频段有效载荷为家庭和移动平台提供互联网接入。该卫星仍在工作。
2D轨道图
3D轨道图
轨道高度分析图
轨道倾角分析图
轨道综合分析图
查看轨道综合分析图